Location: Asheville, NC
(35.6000°N, 82.5500°W)
Time: 10:38:04
(UTC-04:00)

BEESAT 3 - Pass Details

Date: 11 March 2018
Orbit: 499 x 517 km, 64.9° (Epoch: 18 June)

Event Time Altitude Azimuth Distance (km) Brightness Sun altitude
Rises 20:44:27 0° 206° (SSW) 2,609 ? -15.0°
Reaches altitude 10° 20:46:36 10° 205° (SSW) 1,729 ? -15.5°
Maximum altitude 20:50:29 82° 119° (ESE) 524 ? -16.3°
Drops below altitude 10° 20:54:24 10° 31° (NNE) 1,747 ? -17.0°
Enters shadow 20:54:28 10° 31° (NNE) 1,777 ? -17.1°
